Retour au catalogue

SL-12 R/B

AUX MOTOR

ActifHEO
NORAD 13608·ROCKET BODY·🇷🇺 Russia

Lancé Oct 12, 1982 depuis Baikonur Cosmodrome

Loading…

Prochains Passages (prochaines 24 heures)

TLE

FraisSource: Space-Track

Époque: Sep 14, 2026, 13:05 UTC

1 13608U 82100F   26257.54577554  .00072058  00000-0  15053-2 0  9991
2 13608  52.0271  60.1615 3250331 154.5835 225.8884  8.95173804994255

Suivez SL-12 R/B en temps réel avec AllMySat

Download on the App Store